This is the latest recevied weather packets stored in our database for station/object KE5KUL-13. If no packets are shown the sender has not sent any weather packets the latest 10 day(s).
| Time | Temp. | Humidity | Pressure | Rain* | Wind** | Luminosity | Snow |
|---|---|---|---|---|---|---|---|
| 1778044519 | 7.22° C | 71% | 1012.4 hPa | 0 mm | - | - | - |
| 1778043919 | 7.78° C | 70% | 1012.9 hPa | 0 mm | - | - | - |
| 1778043439 | 7.78° C | 69% | 1012.6 hPa | 0 mm | - | - | - |
| 1778043018 | 7.78° C | 69% | 1012.2 hPa | 0 mm | - | - | - |
| 1778042418 | 8.33° C | 68% | 1012.2 hPa | 0 mm | - | - | - |
| 1778041818 | 8.33° C | 67% | 1012.4 hPa | 0 mm | - | - | - |
| 1778041218 | 8.89° C | 65% | 1012.1 hPa | 0 mm | - | - | - |
| 1778040618 | 8.89° C | 64% | 1012 hPa | 0 mm | - | - | - |
| 1778040018 | 9.44° C | 63% | 1011.6 hPa | 0 mm | - | - | - |
| 1778039417 | 9.44° C | 62% | 1011.5 hPa | 0 mm | - | - | - |
| 1778038818 | 10° C | 61% | 1011.6 hPa | 0 mm | - | - | - |
| 1778038218 | 10° C | 61% | 1011.5 hPa | 0 mm | - | - | - |
| 1778037617 | 10.56° C | 60% | 1011.4 hPa | 0 mm | - | - | - |
| 1778037017 | 10.56° C | 58% | 1011.3 hPa | 0 mm | - | - | - |
| 1778036418 | 11.11° C | 57% | 1011.1 hPa | 0 mm | - | - | - |
| 1778035818 | 11.11° C | 56% | 1010.9 hPa | 0 mm | - | - | - |
| 1778035218 | 11.67° C | 55% | 1011 hPa | 0 mm | - | - | - |
| 1778034617 | 11.67° C | 55% | 1010.6 hPa | 0 mm | - | - | - |
| 1778034017 | 11.67° C | 54% | 1009.5 hPa | 0 mm | - | - | - |
| 1778033418 | 12.22° C | 55% | 1009.4 hPa | 0 mm | - | - | - |
| 1778032817 | 12.78° C | 54% | 1009.5 hPa | 0 mm | - | - | - |
| 1778032217 | 13.33° C | 53% | 1009.5 hPa | 0 mm | - | - | - |
| 1778031617 | 13.89° C | 50% | 1009.8 hPa | 0 mm | - | - | - |
| 1778031017 | 13.89° C | 49% | 1009.4 hPa | 0 mm | - | - | - |
| 1778030417 | 14.44° C | 48% | 1009.1 hPa | 0 mm | - | - | - |
* Rain latest hour (hover to see other rain measurements)
** Current wind speed in m/s (hover to see current wind gust speed)